This demonstration page uses our WeatherBlox Daily Observations layout. Learn more.

Left ArrowRight Arrow

30.21309, -93.2044

Hourly Observations for March 21, 2015

Temp ( °F °C ) Dew Point ( °F °C ) Humidity (%) Winds ( mph kmh ) Pressure ( in mb ) Visibility ( mi km ) Precip ( " mm )
12:15 am 00:15 Mostly Cloudy 68 20.1 67 19.7 98 98 SSE 3 6 30.09 1019 7 11 0.00 0.00
12:35 am 00:35 Mostly Cloudy 69 20.5 68 20 97 97 Calm 30.09 1019 7 11 0.00 0.00
12:55 am 00:55 Mostly Cloudy 69 20.5 68 19.8 96 96 E 3 6 30.06 1018 7 11 0.00 0.00
1:15 am 01:15 Mostly Cloudy 68 20.2 68 19.8 98 98 Calm 30.06 1018 7 11 0.00 0.00
1:35 am 01:35 Cloudy 69 20.7 68 20 96 96 Calm 30.06 1018 10 16 0.00 0.00
1:55 am 01:55 Cloudy 70 21.1 68 20.2 95 95 W 3 6 30.06 1018 10 16 0.00 0.00
2:15 am 02:15 Mostly Cloudy 70 21 68 20 94 94 Calm 30.06 1018 10 16 0.00 0.00
2:35 am 02:35 Cloudy 70 21.1 68 19.9 93 93 Calm 30.06 1018 10 16 0.00 0.00
2:55 am 02:55 Cloudy 70 21.1 68 20 93 93 WSW 3 6 30.06 1018 10 16 0.00 0.00
3:15 am 03:15 Cloudy 69 20.8 68 19.8 94 94 Calm 30.06 1018 10 16 0.00 0.00
3:35 am 03:35 Cloudy 69 20.3 67 19.7 96 96 Calm 30.06 1018 7 11 0.00 0.00
3:55 am 03:55 Cloudy 69 20.7 68 20 96 96 Calm 30.06 1018 7 11 0.00 0.00
4:15 am 04:15 Cloudy 69 20.5 68 19.9 96 96 Calm 30.06 1018 7 11 0.00 0.00
4:35 am 04:35 Cloudy with Mist and Fog 69 20.5 68 20 97 97 Calm 30.06 1018 5 8 0.00 0.00
4:55 am 04:55 Cloudy 67 19.4 65 18.5 95 95 NE 8 13 30.06 1018 10 16 0.00 0.00
5:15 am 05:15 Cloudy 66 19.1 65 18.1 94 94 NE 7 11 30.06 1018 10 16 0.00 0.00
6:00 am 06:00 Cloudy 64 18 63 17 94 94 ENE 5 7 30.06 1018 10 16 0.00 0.00
6:50 am 06:50 Cloudy 64 18 63 17 94 94 ENE 5 7 30.06 1018 10 16 0.00 0.00
7:50 am 07:50 Cloudy 64 18 63 17 94 94 ENE 5 7 30.06 1018 10 16 0.00 0.00
9:50 am 09:50 Cloudy 66 19 63 17 88 88 ENE 5 7 30.09 1019 10 16 0.00 0.00
10:50 am 10:50 Cloudy 64 18 64 18 100 100 ENE 5 7 30.09 1019 7 11 0.00 0.00
11:50 am 11:50 Cloudy with Rain 64 18 64 18 100 100 ENE 5 7 30.09 1019 5 8 0.00 0.00
12:50 pm 12:50 Cloudy with Light Rain 64 18 64 18 100 100 ENE 5 7 30.06 1018 5 8 0.00 0.00
1:50 pm 13:50 Cloudy with Light Rain 64 18 64 18 100 100 ENE 5 7 30.06 1018 5 8 0.00 0.00
2:50 pm 14:50 Cloudy with Light Rain 66 19 64 18 94 94 ENE 5 7 30.03 1017 5 8 0.00 0.00
3:50 pm 15:50 Cloudy with Light Rain 66 19 64 18 94 94 Calm 30.00 1016 4 6 0.00 0.00
4:50 pm 16:50 Cloudy with Heavy Rain 66 19 64 18 94 94 E 7 11 30.00 1016 3 5 0.00 0.00
5:50 pm 17:50 Cloudy with Light Rain 66 19 66 19 100 100 Calm 30.00 1016 5 8 0.00 0.00
6:50 pm 18:50 Cloudy with Light Rain 64 18 64 18 100 100 Calm 30.00 1016 6 10 0.00 0.00
7:50 pm 19:50 Cloudy 64 18 64 18 100 100 ENE 6 9 30.00 1016 10 16 0.00 0.00
8:50 pm 20:50 Cloudy 64 18 64 18 100 100 NE 6 9 30.00 1016 10 16 0.00 0.00
9:50 pm 21:50 Cloudy 64 18 63 17 94 94 ENE 5 7 30.00 1016 10 16 0.00 0.00
10:15 pm 22:15 Cloudy with Light Rain 64 17.5 63 17.2 98 98 ENE 7 11 30.00 1016 10 16 0.00 0.00
10:35 pm 22:35 Cloudy with Light Rain 64 17.5 63 17.2 98 98 ENE 8 13 30.00 1016 10 16 0.01 0.25
10:55 pm 22:55 Cloudy with Light Rain 64 17.5 63 17.1 98 98 E 6 9 30.00 1016 10 16 0.02 0.51
11:15 pm 23:15 Cloudy 64 17.5 63 17.2 98 98 E 8 13 30.00 1016 10 16 0.00 0.00
11:35 pm 23:35 Cloudy 64 17.5 63 17.1 98 98 E 8 13 30.00 1016 10 16 0.00 0.00
11:55 pm 23:55 Cloudy 64 17.5 63 17.1 98 98 E 9 15 30.00 1016 7 11 0.00 0.00

Powered by AerisWeather